COSMOS 1275 DEB, 42209

Orbit data source: Space-Track

COSMOS 1275 DEB, 42209 is space debris in LEO originally from a launch on Thu, 04 Jun 1981 UTC launched from the Plesetsk Missile And Space Complex (PKMTR). Debris objects in space refer to the collection of defunct objects orbiting the Earth. Examples of debris include non-operational satellites, rocket bodies, and fragments generated from explosions, collisions, or faulty payload assembly.

Loading next visibility...
Identifier
42209, 1981-053TZ
Orbit
LEO
Country
Flag of CISCIS
Related business
Manufacturer
Unknown
Mission
Spacecraft
Bus & Motor
Unknown
Mass
Unknown
Launch date (UTC)
1981-06-04 (45 years ago)
Launch vehicle
Unknown
Launch site
Plesetsk Missile And Space Complex (PKMTR)
Object type
Payload
Rocket body
Debris
Shape & HBR
Unknown shape, 0.1 m
Radar Cross Section
Small (<0.1 m²)

Expand to show TLE details & history
Last TLE update: 1 day ago

TLE from 1 day ago
0 COSMOS 1275 DEB
1 42209U 81053TZ  26254.44438962  .00000310  00000-0  24083-3 0  9997
2 42209  82.8783 327.3512 0052416 353.2102   6.8345 13.88952160647637
Epoch: 2026-09-11T10:39Z
TLE epoch observation values (Epoch: 2026-09-11T10:39:55.263Z)
Latitude
-0°
Longitude
176.90328°
Altitude
897.172 km
Speed
7.423 km/s
True Right ascension
21h 49m 24s
True Declination
0° 00' 00"
Sunlit
Object was in full shadow at epoch
Visualization orbit readout
Latitude
Unknown
Longitude
Unknown
Altitude
Unknown
Speed
Unknown
Apparent Right ascension
Unknown
Apparent Declination
Unknown
Sunlit
N/A
Visualization observer readout
Local Sidereal Time
03:50:00
Azimuth
Unknown
Elevation
Unknown
Doppler factor
Unknown
Orbital elements
Apogee altitude
967.74 km
Perigee altitude
891.134 km
Semi-major axis
7,307.574 km
Eccentricity
0.00524
Inclination
82.8783°
RAAN
327.3512°
Arg. of periapsis
353.2102°
True anomaly
6.90645°
Mean anomaly
6.8345°
Eccentric anomaly
6.87043°
Mean motion
3.47443 °/min
Orbital period
103.61 mins
BSTAR
0.00024083
Loading maneuver chart data...
Computing Atmospheric mass density...
Loading historical data...
Loading historical data...
Loading historical data...
Loading historical data...
Loading historical data...
Loading historical data...
Loading historical data...

Documentation

Showing up to 5 results
|